Location: Unspecified
(0.0000°N, 0.0000°E)
Time: 23:49:05
(UTC+00:00)

S-56A Canister/Altair - Pass Details

Date: 06 October 2020
Orbit: 633 x 2499 km, 38.9° (Epoch: 28 October)

Event Time Altitude Azimuth Distance (km) Brightness Sun altitude
Rises 06:35:11 0° 195° (SSW) 3,582 10.9 11.7°
Reaches altitude 10° 06:38:28 10° 175° (S) 2,903 10.7 12.5°
Maximum altitude 06:43:11 18° 133° (SE) 2,728 11.4 13.7°
Drops below altitude 10° 06:49:06 10° 94° (E) 3,800 14.2 15.2°
Sets 06:54:17 0° 78° (ENE) 5,188 13.2 16.5°
